GFSNW_sfc_thetae_132.txt.gz
Theta_e
305 305 305 306 306 305 305 305 296 308 309 298 297 292 294 296 296 299 295 295 292 290 291 289 290 290 294 299 298 292 297 291 286 289 295 300 298 296 295 289 287 289 288 291
305 305 305 305 306 305 303 300 299 307 306 290 292 296 295 297 296 295 294 292 293 293 290 286 291 292 297 298 296 292 294 290 282 286 292 298 295 297 297 299 296 289 284 291
304 304 304 305 306 305 305 301 294 298 300 298 293 292 294 293 298 295 295 293 295 292 290 292 288 290 295 297 296 299 297 291 287 283 287 290 292 295 297 295 290 291 290 294
303 303 304 305 305 305 305 299 295 297 290 292 293 295 295 292 292 296 297 293 292 289 285 287 288 292 293 294 296 296 296 288 292 294 295 295 294 294 295 294 295 292 295 296
303 303 303 304 305 305 303 295 293 295 292 294 294 295 293 291 292 293 292 289 291 290 286 287 285 289 288 288 292 292 293 288 291 290 296 296 293 296 296 296 296 296 295 295
303 303 303 303 305 305 301 302 299 293 291 293 292 293 292 293 294 295 296 293 291 290 292 294 295 295 294 292 289 288 290 290 288 286 294 292 289 294 296 297 299 298 293 297
302 302 302 302 303 304 303 304 301 293 287 290 291 292 294 293 294 292 295 296 291 295 301 301 299 299 297 295 293 292 287 288 288 286 288 283 297 302 301 298 300 302 302 303
302 302 302 303 303 304 302 303 301 293 286 292 291 294 294 295 296 293 294 296 300 302 298 290 290 294 293 294 295 292 290 287 286 284 284 291 298 299 299 297 297 304 302 302
302 302 302 303 303 304 303 303 308 299 289 291 295 293 295 292 292 293 296 300 303 301 294 289 287 288 290 288 289 295 292 290 286 286 284 285 293 302 307 305 292 305 308 303
301 302 302 303 303 304 304 302 311 300 291 295 298 293 292 295 294 291 296 296 294 297 290 288 288 287 293 287 287 285 286 286 285 286 286 291 300 303 307 293 291 306 306 305
301 301 302 303 303 303 303 302 307 301 295 296 299 301 297 297 297 291 296 291 292 290 287 288 287 287 290 289 289 286 286 286 286 287 284 286 301 305 299 302 309 302 302 301
301 301 302 304 302 303 304 299 306 308 298 297 304 305 306 303 302 297 298 293 289 289 286 289 288 287 290 288 285 291 286 289 287 288 287 297 303 307 309 311 306 301 299 298
301 302 303 303 302 303 303 301 304 303 297 298 300 300 307 311 309 310 297 297 294 291 294 288 288 285 288 286 286 288 289 292 290 291 292 298 304 305 310 309 305 302 300 298
301 302 303 302 302 304 304 303 304 304 297 292 296 306 304 310 310 310 308 303 298 298 296 288 288 287 292 289 289 286 287 289 289 289 293 297 300 300 301 302 301 298 297 295
301 303 302 302 303 304 304 305 305 310 299 292 294 302 307 309 310 308 309 305 300 296 292 290 288 292 293 295 291 287 287 287 287 288 294 293 295 298 299 296 295 295 294 293
302 303 302 303 303 304 302 300 307 308 307 296 288 302 304 308 310 307 305 303 304 299 295 295 298 300 297 291 287 287 288 293 294 291 294 293 294 296 297 295 295 295 295 295
301 302 302 303 304 304 299 299 303 305 308 295 290 295 304 308 308 306 303 306 305 303 301 297 297 297 296 290 284 286 290 294 295 297 295 291 293 291 294 295 296 297 297 297
301 302 302 304 305 304 302 308 308 307 303 297 291 295 299 308 301 301 306 301 304 303 300 300 297 297 295 286 287 288 291 294 295 295 295 294 295 295 294 295 295 294 294 296
302 302 304 306 303 302 305 307 306 308 302 294 295 292 293 306 301 303 304 303 297 305 296 295 297 292 288 294 293 292 292 291 294 297 296 295 295 295 295 295 295 294 294 297
304 305 304 298 304 305 308 305 300 298 300 300 295 301 295 301 301 298 298 302 297 294 297 301 292 291 298 300 300 300 298 297 300 298 297 298 298 298 298 297 298 297 296 296
305 300 297 304 309 304 300 295 296 298 294 298 300 301 296 303 297 297 299 296 298 292 295 294 290 289 295 301 302 303 303 301 299 298 299 299 298 297 297 297 297 297 297 297
298 297 301 302 300 298 294 293 297 295 294 301 298 298 301 302 305 299 300 295 297 291 301 296 288 293 300 302 301 302 302 301 299 298 296 296 297 297 297 297 296 297 297 298
303 300 294 297 297 288 289 288 293 294 299 299 300 298 301 303 303 299 297 293 293 302 296 290 290 298 302 302 300 300 301 301 299 298 298 297 296 297 296 296 297 298 298 298
295 294 288 291 291 293 294 294 294 299 300 300 300 299 299 301 297 298 293 296 298 291 289 288 294 299 303 303 302 300 298 298 298 298 298 297 296 296 296 296 296 296 296 297
293 295 287 291 297 299 298 299 299 302 302 301 300 301 300 297 296 297 295 291 289 291 290 293 299 301 303 304 304 302 300 299 298 298 297 297 297 297 296 297 297 296 296 297
295 296 293 296 296 297 299 299 299 305 303 303 303 298 295 295 296 292 290 290 288 293 298 302 303 302 305 304 304 305 304 303 301 299 299 298 297 297 297 298 297 296 296 295
294 295 298 298 298 298 298 301 302 305 301 298 300 294 292 298 294 292 295 292 297 302 303 304 305 306 304 307 306 306 306 305 304 301 300 300 300 299 298 296 297 297 297 296

GFSNW_sfc_thetae_135.txt.gz
Theta_e
306 305 305 305 305 304 302 299 293 304 305 292 291 287 291 296 296 298 294 294 291 289 289 287 287 288 291 296 296 290 293 287 283 287 295 298 295 291 290 284 281 285 286 284
305 305 305 305 305 304 299 295 297 304 302 285 286 291 292 295 295 294 294 291 293 293 290 285 288 289 295 296 294 290 292 285 278 282 291 296 291 294 294 292 292 285 283 285
305 305 305 305 305 305 301 297 289 295 295 294 289 288 290 291 296 294 295 293 294 290 286 289 287 287 293 295 294 299 296 287 283 278 283 290 287 292 295 292 285 286 287 291
304 304 304 304 304 304 301 296 291 292 285 287 288 290 291 289 288 294 295 292 291 289 284 287 286 289 291 293 295 293 293 286 287 289 292 292 292 292 294 291 292 288 291 292
303 303 304 303 304 304 300 291 291 294 289 291 289 290 288 288 290 291 291 289 291 291 286 287 285 289 289 288 291 290 292 286 287 286 291 292 290 294 295 295 293 294 294 294
303 303 303 302 304 304 298 298 300 293 290 288 287 287 288 289 292 294 295 292 290 289 292 294 294 295 294 293 289 288 287 285 285 282 289 288 284 291 293 295 297 296 291 297
303 302 302 302 303 303 300 298 297 292 285 287 287 289 291 290 291 290 293 294 291 295 299 298 297 295 294 294 293 293 287 286 286 282 285 280 293 301 298 297 298 300 301 302
303 302 302 302 302 303 299 299 297 293 285 289 289 291 290 292 293 291 292 296 299 300 295 290 287 291 292 293 295 292 291 287 282 282 281 287 295 298 298 295 296 302 301 302
302 302 302 302 302 304 301 300 301 297 289 287 292 290 291 288 288 290 293 298 301 298 292 289 284 285 288 288 290 296 291 289 284 283 281 282 293 300 304 302 290 305 304 301
302 302 302 302 303 304 301 299 302 298 290 293 294 289 289 293 292 289 292 295 294 295 287 285 285 285 290 285 286 285 285 285 282 283 283 289 299 299 306 289 290 305 303 301
302 301 302 302 304 304 301 298 302 298 293 294 296 297 293 293 292 288 293 291 291 289 284 285 284 284 287 287 288 284 285 283 285 286 284 284 299 300 296 298 301 305 302 299
301 301 301 303 304 303 302 296 302 303 296 294 299 299 301 299 298 295 296 293 291 290 285 287 286 285 287 286 282 288 284 286 284 285 285 294 304 303 304 303 299 299 298 298
301 301 302 303 303 302 302 299 300 300 295 294 295 296 302 305 305 306 294 296 296 291 293 287 287 284 288 284 285 285 287 289 288 290 292 294 298 302 300 299 297 297 299 299
300 301 302 303 302 302 304 299 301 299 296 289 292 303 299 304 306 307 307 302 298 297 293 288 287 285 292 288 288 285 285 286 287 289 291 295 295 297 297 297 297 296 296 296
300 301 302 302 302 303 303 301 302 303 296 290 292 298 303 309 309 308 307 303 301 296 291 289 288 291 291 294 289 284 286 286 286 284 291 292 292 295 296 294 294 294 294 293
301 302 302 303 303 303 300 297 304 307 305 294 288 297 299 303 308 305 303 303 302 299 295 294 296 299 295 289 284 285 288 294 294 289 293 293 294 295 296 294 294 295 294 295
301 302 302 302 303 301 295 297 303 305 303 295 289 290 302 305 306 304 302 304 302 302 298 295 296 295 293 287 280 285 291 294 294 295 293 290 292 292 296 296 296 297 297 297
301 301 302 303 304 303 299 304 306 307 301 297 289 291 297 306 300 298 303 299 302 298 297 298 294 295 292 284 286 289 292 294 293 293 294 293 294 295 295 296 296 295 295 296
302 303 303 303 302 301 304 310 308 306 300 292 293 290 289 303 300 301 301 301 294 300 294 295 294 291 287 287 289 291 294 294 293 295 295 295 294 294 295 296 296 295 295 296
303 302 300 297 302 306 308 302 299 297 298 298 292 297 294 300 298 297 296 299 295 291 294 298 290 291 296 295 295 296 297 299 297 293 293 294 294 295 295 295 296 296 296 295
302 299 296 300 308 303 300 295 295 296 294 297 296 298 295 302 294 294 297 294 297 290 293 291 287 288 295 300 299 299 299 297 295 298 297 297 297 296 295 294 295 295 295 295
296 295 299 300 298 297 293 292 296 295 293 299 297 297 299 300 303 297 298 294 296 288 299 292 287 292 298 300 300 300 297 296 295 296 295 295 296 295 295 295 294 295 295 297
301 297 294 294 296 287 289 287 291 292 297 299 298 295 299 301 302 298 296 293 291 301 292 288 291 297 300 298 298 297 297 296 295 295 295 295 295 296 295 294 295 296 296 296
293 292 286 289 290 292 293 294 294 298 299 299 299 297 297 300 296 297 293 295 296 290 287 287 294 298 301 299 298 297 296 296 295 295 294 294 294 294 295 295 295 295 294 295
292 293 286 291 296 298 298 299 298 301 302 301 298 298 299 296 294 296 293 291 289 290 287 291 296 299 302 301 298 296 296 295 294 295 294 294 294 293 293 294 294 295 295 295
293 294 291 295 294 295 298 299 299 303 301 302 301 297 294 293 293 292 290 289 287 290 295 299 300 301 303 302 302 301 299 297 295 295 295 295 294 293 293 293 293 294 294 294
292 292 298 297 297 296 297 300 301 304 300 296 297 293 293 297 292 291 294 290 294 298 299 302 303 301 302 303 303 303 302 299 297 297 297 296 296 295 294 292 292 293 293 294

GFSNW_sfc_thetae_138.txt.gz
Theta_e
306 306 306 305 305 304 301 294 287 301 299 287 285 283 289 294 294 296 294 294 291 288 288 286 286 287 291 295 294 288 291 285 280 284 292 295 294 290 289 282 281 282 281 282
306 306 305 305 304 304 298 292 290 299 296 280 281 287 289 292 292 292 292 291 292 293 289 284 287 288 294 295 293 290 291 283 276 278 289 295 291 291 291 289 287 285 278 282
305 305 305 304 304 304 299 292 284 288 289 288 283 283 285 287 293 292 293 293 293 291 288 290 288 288 292 295 295 298 295 289 284 279 279 286 284 288 291 290 284 285 285 288
304 304 304 304 303 304 296 289 284 287 279 285 285 286 286 285 285 292 293 291 291 288 284 286 287 289 291 294 296 294 292 285 287 288 289 289 289 289 289 289 290 285 288 290
304 304 303 303 303 304 293 286 287 289 289 289 287 286 284 285 287 288 288 287 289 289 286 288 285 289 289 287 292 288 290 283 284 282 287 288 287 289 291 291 293 292 293 292
304 303 303 303 303 301 292 291 293 292 289 287 285 284 286 287 289 291 292 290 288 288 291 294 294 294 293 292 290 289 287 285 283 279 287 286 283 292 293 293 296 293 288 296
303 303 303 302 302 303 297 293 295 289 282 286 286 288 289 287 288 287 290 292 290 294 299 296 294 293 293 293 293 294 288 286 285 281 284 279 292 300 298 295 298 298 299 297
303 302 302 302 302 303 298 294 295 291 285 288 288 289 287 290 289 288 290 293 296 298 293 288 286 290 291 293 294 293 292 286 282 279 280 286 294 298 297 295 296 301 298 296
302 302 301 302 302 304 299 293 296 294 287 285 290 288 290 286 286 289 290 295 298 296 288 286 281 283 287 287 289 294 291 288 284 282 279 279 292 299 301 300 291 302 299 296
302 302 301 302 302 304 300 295 297 295 288 290 292 288 287 291 291 287 289 293 293 295 286 283 281 282 288 283 285 284 285 285 281 281 281 287 298 299 301 287 292 301 298 297
301 302 301 302 303 304 299 293 295 295 291 291 293 293 290 290 289 285 290 289 291 289 284 285 284 283 286 286 287 283 284 282 284 285 282 282 296 298 295 297 302 300 298 297
301 301 301 302 303 304 302 294 296 299 293 291 296 296 297 296 295 291 293 292 292 292 285 287 286 284 286 285 281 288 283 285 281 284 284 290 299 298 301 301 298 297 297 298
301 301 301 302 303 303 301 297 298 297 293 292 290 291 297 301 300 302 292 296 298 292 294 288 287 283 287 283 284 284 287 289 287 288 290 291 295 296 298 299 298 298 298 298
300 300 300 301 302 303 303 297 296 297 294 288 288 298 297 302 306 305 305 302 299 296 293 288 287 285 291 288 287 284 285 286 286 287 289 293 293 295 295 295 296 295 296 296
301 301 301 301 302 302 301 298 298 300 294 289 291 296 297 300 308 307 307 303 299 295 291 289 287 291 290 290 288 283 285 285 285 282 290 289 291 294 296 294 294 295 294 294
302 302 302 302 302 302 298 292 302 303 302 293 286 291 294 298 307 305 303 303 301 298 294 293 295 298 293 286 282 286 288 293 292 289 293 293 294 295 296 294 294 295 295 296
302 301 301 302 302 297 294 292 296 303 299 293 289 286 296 304 306 304 301 302 299 296 296 294 295 293 289 285 279 285 290 292 293 294 294 292 294 292 296 296 296 297 297 297
301 301 302 302 304 302 297 298 302 301 294 297 288 287 291 302 298 296 302 298 297 295 294 297 293 295 291 284 286 292 293 293 293 294 295 294 295 296 296 297 297 295 295 296
301 302 303 299 298 295 300 309 306 298 294 289 291 285 284 299 298 299 299 300 291 297 292 294 293 290 283 286 290 293 292 292 292 295 295 296 295 295 295 296 296 295 295 296
302 298 296 293 301 309 304 301 293 295 296 295 290 291 288 297 296 295 294 298 294 290 293 296 290 287 292 295 295 296 296 294 295 291 292 294 294 295 295 295 296 295 295 294
293 289 290 293 302 296 297 292 292 294 291 294 291 291 290 299 293 293 295 293 295 289 292 289 287 287 293 297 298 299 299 298 297 297 298 297 296 294 294 295 295 295 294 292
291 291 295 294 294 295 291 288 290 292 291 295 291 293 295 296 299 295 296 293 292 288 297 290 286 291 297 299 299 300 294 296 297 297 296 296 295 295 294 294 294 294 294 294
298 296 293 292 291 280 285 285 283 287 292 293 293 291 294 297 297 296 295 291 290 300 287 288 290 295 297 298 300 296 294 293 293 293 294 294 294 294 294 293 294 295 294 294
290 291 282 284 285 289 290 289 288 292 293 294 293 292 293 295 293 295 292 294 296 289 285 286 290 295 298 295 296 294 292 292 292 292 293 293 293 292 293 294 295 294 293 293
289 291 282 285 290 292 294 293 293 295 296 297 292 293 294 293 292 292 291 288 287 288 285 288 293 295 297 293 293 293 292 292 291 292 292 292 292 292 292 292 292 294 294 294
292 290 287 289 288 289 291 292 292 297 296 294 294 292 290 290 290 290 288 287 283 285 290 293 296 297 300 293 293 293 293 292 291 292 292 292 292 291 291 292 293 293 294 293
290 287 291 289 291 288 291 295 293 298 294 290 294 291 290 293 289 288 290 286 290 293 296 298 297 299 301 299 298 295 294 293 292 292 292 291 292 291 290 289 290 291 292 292

GFSNW_sfc_thetae_141.txt.gz
Theta_e
306 306 306 305 304 303 300 295 284 298 296 285 283 280 286 293 292 293 291 291 290 288 289 287 285 285 289 294 293 288 291 287 281 283 290 294 292 290 289 284 279 281 279 281
306 306 305 305 304 303 298 291 291 298 294 279 280 284 287 290 290 290 290 288 292 292 289 284 288 288 293 295 293 290 289 283 278 277 287 293 288 291 290 288 288 282 277 280
305 305 305 305 304 304 299 292 283 286 287 286 282 284 284 285 292 290 291 289 293 290 287 289 287 288 292 295 294 299 296 287 283 275 277 285 284 287 289 288 283 283 284 286
305 304 304 304 304 304 293 287 282 285 279 282 284 283 285 284 284 290 289 289 289 286 283 285 287 289 291 294 296 294 291 284 285 287 288 288 287 287 288 287 288 285 288 288
304 304 303 304 303 303 291 284 285 286 284 286 284 284 282 284 286 286 285 286 287 288 285 286 285 288 288 288 292 289 290 283 285 282 287 286 284 287 288 288 289 290 291 289
304 304 303 303 302 300 287 289 289 289 286 283 285 283 285 285 288 289 291 289 286 286 289 292 293 293 293 292 290 288 288 286 282 280 286 285 282 287 290 291 293 292 288 292
303 303 303 302 302 302 295 290 293 288 279 283 284 286 287 286 287 286 289 290 288 292 296 294 294 294 293 293 292 292 288 286 285 280 282 277 291 299 297 295 297 296 297 298
303 302 302 301 301 302 298 294 292 288 281 286 285 287 285 288 289 288 289 291 294 295 293 286 283 287 289 291 294 293 292 285 282 276 278 284 293 297 294 292 294 300 297 297
302 302 302 301 302 303 300 293 295 293 286 282 288 285 288 285 285 288 290 293 295 295 288 286 280 280 285 285 287 293 290 287 283 279 276 277 291 294 296 298 290 298 296 295
301 301 301 301 302 303 301 294 294 294 286 287 288 286 286 290 289 286 288 289 291 295 286 280 281 281 288 281 283 283 284 284 281 281 279 285 293 292 299 287 288 295 296 296
301 301 301 301 302 303 300 293 293 294 289 290 291 291 287 288 289 285 287 287 291 289 284 285 284 282 285 285 286 283 283 280 280 283 279 278 291 293 292 295 297 295 296 296
301 301 300 301 302 303 302 293 295 299 292 290 294 294 295 294 293 290 291 290 290 292 285 287 286 284 284 285 280 287 282 284 280 282 283 287 293 296 299 298 295 295 295 297
301 300 300 300 301 302 302 296 298 297 292 291 288 290 296 300 298 299 289 294 297 293 294 288 287 283 287 283 284 284 287 288 285 286 287 288 292 295 296 297 297 297 298 297
301 300 300 300 301 301 302 297 297 296 292 287 288 297 295 301 302 300 299 297 299 295 294 289 287 285 291 287 286 284 285 285 285 286 287 290 291 294 295 295 296 296 297 297
301 301 301 301 301 301 299 295 296 298 293 289 290 294 296 297 305 306 304 302 297 294 291 289 288 291 290 290 287 284 285 284 284 282 287 289 290 294 296 294 294 295 294 294
301 302 301 301 301 301 293 290 299 300 299 293 285 290 294 297 301 304 304 302 301 297 294 293 295 295 291 284 280 286 289 292 291 289 294 293 294 295 296 294 294 295 295 295
301 301 301 301 301 299 292 289 297 302 300 292 288 284 292 298 305 303 300 299 297 294 296 294 294 291 287 286 281 286 291 293 293 295 294 292 294 293 296 296 296 297 296 296
301 301 302 302 303 302 297 296 302 301 295 295 288 285 289 300 298 296 299 295 293 296 295 296 293 293 290 285 287 291 292 293 294 294 296 295 296 296 296 297 297 295 294 295
301 301 302 297 296 295 298 307 305 298 296 288 288 287 285 297 298 299 299 299 290 294 293 293 292 288 283 287 291 291 292 292 293 296 296 296 295 295 296 296 296 294 294 295
302 297 294 290 297 304 305 300 292 295 295 294 289 289 286 295 296 295 294 297 294 288 292 295 289 286 293 294 295 294 294 295 296 293 292 294 294 294 295 295 296 295 293 293
290 287 288 292 299 294 296 291 291 292 290 293 290 289 288 296 292 293 296 292 294 288 291 289 287 286 292 296 297 298 297 296 298 297 297 296 296 294 294 294 293 292 292 290
290 289 292 292 292 294 290 288 289 290 288 292 289 291 292 295 298 295 296 293 292 287 296 290 286 291 297 297 298 296 298 298 298 299 297 295 295 295 294 292 291 291 291 291
295 294 292 289 290 281 283 285 282 288 290 292 291 290 292 296 297 296 295 291 289 297 288 287 289 294 297 298 296 293 298 297 297 296 294 294 293 294 293 292 292 292 292 291
288 289 280 285 283 285 285 287 287 290 290 292 291 290 291 293 292 295 291 293 295 288 285 285 291 295 297 297 295 291 291 292 292 292 292 292 292 292 293 292 293 292 291 291
287 287 279 283 288 291 291 292 291 293 294 292 291 290 292 291 290 292 291 289 286 287 284 286 292 295 294 294 293 291 291 290 290 291 291 291 292 291 291 291 291 292 291 291
288 287 285 287 286 286 288 290 290 294 293 292 291 289 289 289 288 289 288 286 283 284 290 292 294 296 293 291 292 291 291 289 289 290 291 291 291 291 290 291 292 292 292 291
289 285 288 286 285 286 288 291 291 294 292 288 291 288 288 292 288 287 289 286 289 291 293 295 297 297 293 292 292 292 292 291 290 290 290 289 290 290 290 289 290 291 292 291

GFSNW_sfc_thetae_144.txt.gz
Theta_e
308 306 306 306 305 303 300 293 281 296 294 283 280 279 284 291 290 292 289 289 288 286 289 287 285 284 289 295 293 287 290 287 280 282 289 292 290 289 289 283 279 279 278 279
307 306 305 305 305 304 298 290 289 296 292 278 279 283 285 288 288 288 288 286 290 292 288 283 286 288 294 295 292 290 290 283 277 276 284 291 284 288 289 288 286 283 279 280
306 306 305 305 304 303 296 287 282 285 286 284 281 283 282 284 290 289 289 286 290 289 286 288 286 287 291 295 294 298 295 287 282 278 278 283 281 286 289 288 282 280 282 285
306 305 304 304 303 303 291 285 281 288 278 280 281 281 283 283 283 289 288 286 289 287 282 283 285 289 291 293 295 295 292 283 285 286 287 287 286 285 286 285 286 281 284 285
305 304 304 304 303 301 288 282 282 284 281 283 282 282 281 283 285 286 284 284 288 286 283 284 282 287 287 288 292 290 291 283 285 283 287 286 284 286 286 286 286 286 287 287
304 303 303 303 303 298 285 286 285 287 283 281 279 280 284 283 287 287 289 288 286 284 287 292 291 291 291 290 289 288 287 285 283 280 286 285 280 286 286 288 290 288 283 289
303 303 302 301 301 301 294 292 289 287 279 281 281 284 285 285 286 285 288 289 287 290 295 294 292 293 293 293 292 292 287 286 285 279 277 273 290 295 293 291 295 294 293 295
303 302 302 302 301 302 298 295 292 285 279 282 283 285 284 285 288 287 287 290 292 294 291 286 285 285 289 290 293 292 292 285 282 277 272 282 292 290 289 287 289 298 297 298
303 302 302 301 301 302 297 296 293 292 282 281 286 283 285 284 284 286 289 294 294 294 290 286 280 280 284 283 285 292 290 288 283 277 274 273 285 289 291 292 286 295 296 296
302 301 301 301 301 302 300 294 293 292 286 285 286 285 283 288 288 285 288 289 289 295 287 283 280 281 287 281 282 282 282 280 281 281 279 284 287 288 292 286 284 295 295 296
302 302 301 300 301 302 301 292 292 292 289 289 290 290 286 287 288 284 289 286 291 289 284 285 285 282 285 284 286 282 281 278 275 280 278 275 289 288 286 285 292 293 295 296
302 301 301 301 301 302 302 293 295 298 291 289 291 293 295 294 293 289 290 289 289 290 285 287 286 283 284 284 279 287 281 283 280 281 282 288 288 289 294 294 292 293 294 296
302 301 301 300 301 301 301 296 297 296 292 291 286 288 295 298 296 298 287 292 295 294 295 289 287 283 287 283 283 284 287 288 284 285 287 286 289 293 295 296 294 294 295 295
301 301 301 300 300 301 301 296 297 295 292 285 287 295 294 299 300 298 297 296 298 296 294 290 287 285 291 286 286 284 285 285 284 285 288 289 290 293 294 294 296 296 295 295
301 301 302 302 301 300 299 294 295 298 293 288 289 293 294 296 299 302 298 296 295 294 291 290 288 291 290 290 288 284 286 284 282 282 288 289 290 294 295 294 293 295 294 293
301 301 302 301 300 300 294 289 298 299 298 291 286 289 292 294 298 303 303 302 300 297 294 294 294 293 290 282 281 286 289 292 292 289 294 294 294 295 296 294 294 294 294 294
301 300 300 300 300 298 291 287 296 301 300 292 288 284 290 294 299 297 297 300 299 297 296 294 294 290 288 287 282 286 291 293 294 295 294 292 294 292 295 295 295 295 294 294
301 301 301 301 301 301 296 297 302 302 294 294 287 285 287 295 295 292 296 293 293 294 295 296 292 292 290 285 288 291 293 294 294 295 296 295 296 296 295 296 295 293 292 293
301 301 301 299 296 292 295 307 305 301 295 289 287 283 280 293 294 298 298 298 292 294 293 292 291 288 283 288 291 291 293 293 294 296 296 296 295 295 295 295 295 292 292 292
301 298 294 289 292 303 305 298 294 294 294 293 288 287 283 290 291 295 294 296 293 288 292 295 288 287 291 294 294 294 295 296 297 293 293 294 294 294 294 293 294 293 292 292
290 288 290 292 298 293 294 290 290 293 290 292 291 287 285 292 288 292 296 292 293 286 290 289 286 285 290 296 295 295 296 297 297 297 297 296 295 294 293 292 292 292 291 290
290 289 291 290 290 291 289 287 288 290 288 289 287 289 289 291 297 295 296 292 291 287 294 289 285 290 295 295 295 296 297 297 297 297 296 296 295 293 291 290 290 290 291 291
296 293 288 286 286 284 284 281 282 287 290 290 290 289 290 292 295 295 294 290 288 295 288 286 288 293 296 295 295 297 298 299 298 294 294 294 293 293 291 290 290 290 289 289
288 288 283 284 282 285 284 284 285 289 289 290 289 288 288 291 291 293 289 291 293 287 284 286 291 294 295 293 294 297 296 295 292 291 292 292 292 291 291 291 291 290 289 289
285 287 280 282 286 287 291 291 289 291 292 291 289 288 289 289 289 291 289 288 286 287 285 288 293 296 295 292 292 292 292 291 290 291 291 291 292 291 290 290 290 290 290 289
286 285 284 285 285 285 287 288 289 292 291 290 289 287 286 287 287 287 287 286 284 286 290 293 295 295 294 292 291 291 291 291 291 291 292 291 291 290 290 291 291 291 290 289
286 283 286 285 284 284 286 288 289 291 291 287 288 286 286 290 286 287 289 286 289 292 293 295 297 295 292 293 292 292 291 290 290 290 291 290 291 291 290 289 290 291 290 290

GFSNW_sfc_thetae_147.txt.gz
Theta_e
309 307 306 306 305 303 301 295 289 301 300 290 288 286 286 290 290 293 290 291 289 288 288 287 286 287 289 296 294 288 292 288 282 285 292 294 291 289 291 283 283 286 285 285
308 306 306 306 304 304 298 292 292 301 299 283 285 288 286 288 289 288 288 287 290 291 287 284 287 288 294 295 293 290 291 287 280 285 289 292 288 291 290 289 287 284 282 286
307 306 305 305 304 304 299 292 286 291 292 291 286 284 285 285 290 289 290 288 290 290 287 289 285 287 290 295 294 298 296 287 283 281 285 288 285 288 290 289 283 285 286 289
306 305 304 304 303 303 296 291 287 288 284 286 286 286 285 284 284 289 290 287 288 286 283 284 285 289 289 291 294 294 292 285 288 288 289 288 287 287 288 286 287 282 285 288
305 304 303 304 303 300 293 289 288 289 286 287 286 286 284 284 285 286 286 285 288 287 283 284 282 286 287 286 291 291 292 286 287 285 288 288 285 287 288 288 288 288 288 288
304 303 303 302 303 299 293 293 293 289 286 286 285 285 285 285 288 288 289 289 286 286 289 291 292 292 290 289 288 287 287 286 285 282 287 286 282 286 287 288 290 291 287 292
304 303 302 302 302 301 298 296 294 287 283 284 284 285 286 286 287 285 288 290 288 292 297 296 296 295 292 292 293 290 287 286 286 283 284 278 290 290 290 288 289 292 293 296
304 302 302 302 301 301 301 297 294 289 282 285 285 287 286 288 289 288 289 292 294 297 292 289 288 290 291 292 293 293 292 286 283 281 281 285 286 286 286 284 284 290 291 297
304 302 301 301 300 301 302 300 298 294 284 285 288 286 287 286 287 289 291 295 298 295 291 287 283 282 285 285 287 294 292 290 285 283 279 278 282 287 290 290 281 289 289 293
304 303 302 301 300 302 303 298 299 294 286 290 290 287 286 290 288 285 289 291 290 295 289 285 284 283 288 283 282 283 284 284 281 282 281 284 286 287 290 281 282 288 292 295
304 303 302 301 299 301 302 298 297 295 289 290 293 293 290 290 289 285 290 288 290 289 286 286 285 285 286 285 287 284 282 281 280 281 280 277 289 286 282 285 289 291 293 295
303 302 301 301 300 301 302 296 297 297 291 291 297 296 297 295 295 291 290 289 288 289 286 289 287 285 287 285 282 289 282 284 281 282 283 287 286 286 289 292 292 293 294 298
303 303 301 301 300 301 301 299 299 296 292 292 293 294 299 300 298 298 287 291 293 293 296 290 288 285 288 284 285 285 288 287 284 284 287 285 287 290 291 295 293 294 296 297
302 302 301 301 301 300 301 298 299 297 292 286 291 300 299 303 301 297 295 295 297 296 295 291 288 286 291 287 287 286 286 285 285 286 288 290 290 290 293 293 294 294 296 296
302 302 301 301 302 301 299 298 299 299 292 288 292 298 300 301 299 298 297 295 294 294 292 290 289 292 290 290 289 287 286 285 284 283 287 289 288 292 294 292 291 293 293 294
302 301 302 302 300 300 297 293 299 299 298 291 287 297 297 300 300 300 302 297 295 295 295 294 294 295 291 287 286 287 290 293 293 288 293 294 294 294 295 293 293 293 293 294
302 301 301 300 300 299 293 293 298 301 299 292 287 291 297 298 299 305 303 304 303 300 299 296 294 294 293 288 285 287 292 294 295 296 295 292 293 292 295 294 295 295 294 294
301 301 300 300 300 300 296 301 302 302 296 294 288 290 293 300 300 300 305 300 300 300 299 297 294 294 292 287 289 292 294 295 295 295 296 295 295 295 294 295 294 292 292 293
301 301 300 299 297 293 297 304 305 301 296 290 289 286 289 299 300 301 301 300 294 300 295 295 294 289 287 289 292 292 294 294 294 296 296 295 294 294 294 294 294 293 291 292
301 299 294 291 296 302 304 300 295 293 295 294 289 294 290 297 298 297 295 297 293 289 293 296 289 289 295 297 295 295 296 297 297 294 293 294 293 293 292 292 292 292 292 293
296 294 292 298 299 298 297 292 291 292 290 293 293 294 292 299 294 295 297 293 294 289 292 291 288 288 293 296 295 296 297 297 297 297 296 296 295 293 292 293 294 294 294 293
295 296 296 296 296 293 290 289 291 290 289 295 294 296 294 298 298 296 297 293 292 287 296 290 286 292 294 295 295 296 297 297 297 297 295 295 295 296 295 294 294 294 294 294
298 295 292 292 291 285 284 283 287 289 295 298 298 296 298 299 298 297 296 291 289 298 290 287 290 295 295 296 297 297 298 299 296 296 296 296 296 296 295 294 294 294 294 294
291 289 284 286 285 286 288 289 292 297 296 297 297 297 297 299 296 297 291 295 294 288 287 286 292 296 297 296 299 299 298 298 296 296 296 296 295 295 295 295 295 294 293 293
289 290 283 285 290 292 294 295 295 297 299 299 297 296 297 296 294 296 294 290 288 289 288 291 296 299 297 295 298 299 299 296 295 296 296 295 295 295 294 295 295 295 294 294
289 288 286 289 289 290 293 295 296 299 299 298 298 295 293 293 294 291 290 289 287 291 294 297 299 298 297 296 296 297 297 296 296 297 297 296 296 295 294 295 295 295 294 294
287 287 290 290 291 292 294 295 296 299 298 296 296 290 290 296 292 291 294 291 294 297 297 299 301 300 299 298 296 296 296 296 297 297 298 297 297 297 295 294 294 295 295 294

GFSNW_sfc_thetae_150.txt.gz
Theta_e
310 308 307 306 305 303 304 302 296 305 308 295 296 290 289 291 293 296 293 293 292 290 290 288 288 289 292 297 296 291 295 290 286 289 296 297 295 292 293 286 285 289 287 287
309 307 306 306 305 304 302 297 298 305 304 289 290 292 290 291 291 292 291 290 293 294 289 285 290 292 296 296 294 291 293 288 285 287 293 295 291 293 292 293 291 285 284 287
308 306 305 306 305 304 303 296 293 298 300 297 291 290 289 289 293 291 293 292 294 292 289 291 289 290 293 295 294 298 295 287 285 283 287 290 287 289 291 289 287 288 287 290
307 306 304 305 304 304 302 298 294 293 290 292 292 292 290 289 289 292 294 292 292 290 285 287 288 291 290 292 295 294 292 287 290 290 291 291 289 289 290 288 289 286 289 291
306 305 304 304 304 303 302 294 293 296 293 293 292 291 291 289 290 290 291 291 293 292 286 287 285 289 289 288 293 291 293 288 291 288 291 291 289 290 290 290 290 291 291 291
305 304 303 303 304 304 301 301 299 293 292 292 291 291 290 290 292 294 295 292 288 288 291 294 295 295 295 292 288 287 288 288 287 284 291 290 285 286 287 289 289 290 286 292
306 303 302 302 302 302 304 300 299 294 291 292 291 291 292 292 293 291 295 296 291 296 300 299 301 300 299 296 293 291 287 287 286 284 287 281 287 289 288 287 290 292 290 290
306 304 302 302 301 301 304 304 298 296 290 292 292 292 292 295 297 297 297 297 299 301 297 290 293 294 294 294 296 295 290 286 285 283 283 287 285 287 285 284 285 290 290 290
307 304 303 302 300 301 304 303 303 296 290 294 293 292 293 293 295 297 298 301 303 298 293 289 285 285 288 289 291 296 294 292 285 283 280 279 283 288 290 290 284 292 291 290
307 305 303 302 301 301 303 302 303 295 290 296 295 294 292 295 293 290 295 293 295 298 290 285 287 286 291 287 285 285 285 285 283 283 282 286 288 289 290 281 284 289 290 291
307 306 304 303 301 301 302 303 303 296 292 295 297 297 295 296 294 289 294 294 291 290 288 287 288 287 289 288 290 285 284 281 282 283 282 279 291 287 281 285 287 289 290 293
307 305 304 303 302 301 302 299 303 302 292 295 301 301 302 301 300 295 292 290 289 290 287 290 289 287 290 288 285 291 284 285 282 283 283 290 288 286 290 292 290 292 294 301
306 305 304 303 302 301 301 299 300 298 292 295 299 300 305 306 305 303 289 291 293 293 296 291 289 286 290 286 287 287 290 288 285 284 289 287 289 290 292 291 292 295 297 298
306 304 303 303 301 301 301 298 301 298 293 288 298 305 303 308 308 303 298 297 298 295 294 291 290 288 293 289 288 287 288 286 285 286 289 290 291 291 292 291 294 295 296 296
305 304 303 302 302 302 301 300 300 300 294 291 295 302 306 307 306 302 300 297 294 293 292 290 290 293 293 292 292 288 287 285 284 284 288 289 288 292 294 292 292 293 294 293
305 304 303 302 303 301 299 296 303 302 300 291 288 303 303 305 306 305 302 299 295 295 295 295 295 297 294 290 288 289 291 294 294 290 294 293 293 294 295 293 293 294 294 294
304 304 302 302 301 300 296 297 300 302 300 292 289 294 304 304 306 309 307 307 302 301 302 296 297 294 294 291 285 287 293 295 295 296 295 291 293 291 295 295 295 295 294 295
303 302 301 301 301 300 297 304 302 302 297 295 289 292 300 306 303 301 309 304 302 300 301 301 296 297 296 289 291 293 295 295 296 295 296 295 295 295 296 297 296 294 292 292
302 302 301 300 298 295 302 305 304 302 298 292 291 290 296 305 304 307 302 302 295 304 297 298 298 294 290 293 294 293 295 294 295 295 295 295 294 294 296 298 298 297 295 295
302 300 295 292 298 305 306 300 296 293 294 294 291 298 295 302 303 301 300 299 294 291 295 299 296 293 297 298 296 296 296 297 297 294 292 293 293 294 296 297 299 299 299 299
297 294 293 302 303 302 300 293 292 292 290 294 295 297 297 305 298 298 300 295 295 291 294 293 292 291 294 297 295 297 298 297 296 297 297 297 297 298 297 297 298 299 299 299
298 301 302 299 297 296 292 290 292 291 291 297 297 300 301 304 305 298 298 293 295 288 297 292 289 293 295 296 296 297 298 298 297 296 296 298 299 299 298 298 297 298 299 300
301 298 296 295 295 287 285 285 288 289 295 300 301 299 302 304 303 299 299 293 292 298 291 289 292 296 296 296 296 297 299 297 298 300 301 300 299 299 299 298 298 298 298 299
295 292 286 289 287 289 291 292 294 299 301 302 301 300 300 303 300 301 294 298 296 289 288 288 294 297 297 298 298 298 298 298 299 300 299 299 298 298 298 298 299 298 297 298
292 292 286 289 294 295 296 298 300 301 304 302 301 301 301 299 297 300 298 293 289 293 289 294 296 299 297 296 298 300 300 298 300 300 299 298 298 298 298 299 299 298 298 297
293 292 291 295 291 293 296 298 299 304 303 305 303 299 296 295 298 294 292 292 290 295 297 297 297 298 298 298 301 302 300 299 300 300 299 298 298 298 298 299 299 298 298 297
290 291 295 294 295 295 297 300 301 305 302 297 301 293 293 302 295 293 300 297 299 300 300 301 302 299 299 299 299 299 299 299 300 300 300 299 300 300 298 296 297 298 298 298